Location: Gammelsbach
(49.5261°N, 8.9630°E)
Time: 21:27:32
(UTC+00:00)

Cosmos 1603 - Pass Details

Date: 17 June 2025
Orbit: 831 x 857 km, 71.0° (Epoch: 16 July)

Event Time Altitude Azimuth Distance (km) Brightness Sun altitude
Rises 21:25:22 0° 333° (NNW) 3,389 9.0 -12.3°
Reaches altitude 10° 21:27:53 10° 338° (NNW) 2,453 7.6 -12.5°
Maximum altitude 21:33:23 53° 55° (NE) 1,018 4.2 -12.9°
Enters shadow 21:37:52 16° 129° (SE) 2,084 5.2 -13.3°
